Weather History for Laramie, WY

Change the Weather History Date:

Sunday, May 27, 2012

  Actual Average Record
Temperature  
Mean Temperature 49 °F 51 °F  
Max Temperature 59 °F 65 °F 85 °F (1969)
Min Temperature 38 °F 37 °F 26 °F (1950)
Degree Days  
Heating Degree Days 16 14  
Month to date heating degree days 416 487  
Since 1 July heating degree days 8016 8536  
Cooling Degree Days 0 0  
Month to date cooling degree days 0 0  
Year to date cooling degree days 0 0  
Moisture  
Dew Point 16 °F    
Average Humidity 34    
Maximum Humidity 54    
Minimum Humidity 14    
Precipitation  
Precipitation T in 0.07 in 0.48 in (1992)
Month to date precipitation 0.71 1.43  
Year to date precipitation 2.36 3.69  
Sea Level Pressure  
Sea Level Pressure 29.68 in    
Wind  
Wind Speed 20 mph (WSW)    
Max Wind Speed 43 mph    
Max Gust Speed 52 mph    
Visibility 10 miles    
Events      
T = Trace of Precipitation, MM = Missing Value Source: NWS Daily Summary

Daily Weather History Graph

Daily Weather History Graph

Search for Another Location

Airport:

Trip Planner

Search our weather history database for the weather conditions in past years. The results will help you decide how hot, cold, wet, or windy it might be!

Date:

Astronomy

May. 27, 2012 Rise Set
Actual Time 5:34 AM MDT 8:26 PM MDT
Civil Twilight 5:01 AM MDT 8:58 PM MDT
Nautical Twilight 4:20 AM MDT 9:40 PM MDT
Astronomical Twilight 3:32 AM MDT 10:28 PM MDT
Moon 11:44 AM MDT (5/27) 12:32 AM MDT (5/27)
Length of Visible Light 15h 57m
Length of Day
14h 51m
Waxing Crescent, 38% of the Moon is Illuminated
May 27
Waxing Crescent
May 28
First Quarter
Jun 4
Full
Jun 11
Last Quarter
Jun 19
New

Hourly Weather History & Observations

Time (MDT) Temp. Windchill Dew Point Humidity Pressure Visibility Wind Dir Wind Speed Gust Speed Precip Events Conditions
12:53 AM 46.0 °F 39.3 °F 26.1 °F 46% 29.52 in 10.0 mi WSW 16.1 mph 24.2 mph N/A   Overcast
1:53 AM 46.9 °F - 10.0 °F 22% 29.53 in 10.0 mi WSW 25.3 mph 31.1 mph N/A   Clear
2:53 AM 43.0 °F 34.8 °F 6.1 °F 22% 29.56 in 10.0 mi WSW 18.4 mph - N/A   Clear
3:53 AM 41.0 °F 30.9 °F 7.0 °F 25% 29.55 in 10.0 mi WSW 24.2 mph 31.1 mph N/A   Clear
4:53 AM 41.0 °F 31.9 °F 8.1 °F 26% 29.56 in 10.0 mi WSW 19.6 mph 26.5 mph N/A   Clear
5:53 AM 39.0 °F 30.3 °F 10.0 °F 30% 29.58 in 10.0 mi WSW 16.1 mph - N/A   Clear
6:53 AM 44.6 °F 37.2 °F 12.2 °F 27% 29.87 in 10.0 mi SW 17.3 mph - N/A   Clear
7:53 AM 46.9 °F - 12.0 °F 24% 29.58 in 10.0 mi WSW 20.7 mph 26.5 mph N/A   Clear
8:53 AM 50.0 °F - 12.0 °F 22% 29.59 in 10.0 mi WSW 13.8 mph 24.2 mph N/A   Clear
9:53 AM 54.0 °F - 9.0 °F 17% 29.58 in 10.0 mi WSW 23.0 mph 29.9 mph N/A   Clear
10:53 AM 55.0 °F - 8.1 °F 15% 29.61 in 10.0 mi WSW 23.0 mph 36.8 mph N/A   Clear
11:53 AM 57.0 °F - 9.0 °F 15% 29.64 in 10.0 mi West 24.2 mph 33.4 mph N/A   Scattered Clouds
12:53 PM 57.0 °F - 12.0 °F 17% 29.65 in 10.0 mi West 26.5 mph 41.4 mph N/A   Clear
1:53 PM 57.0 °F - 12.0 °F 17% 29.65 in 10.0 mi West 21.9 mph 31.1 mph N/A   Clear
2:53 PM 55.9 °F - 10.9 °F 17% 29.68 in 10.0 mi SW 29.9 mph 38.0 mph N/A   Clear
3:53 PM 54.0 °F - 18.0 °F 24% 29.73 in 10.0 mi West 23.0 mph 33.4 mph 0.00 in   Mostly Cloudy
4:53 PM 50.0 °F - 19.0 °F 29% 29.78 in 10.0 mi West 26.5 mph 44.9 mph N/A   Mostly Cloudy
5:53 PM 48.9 °F - 21.9 °F 35% 29.81 in 10.0 mi West 15.0 mph 28.8 mph N/A   Scattered Clouds
6:53 PM 46.0 °F 38.5 °F 27.0 °F 47% 29.82 in 10.0 mi WNW 19.6 mph 25.3 mph N/A   Mostly Cloudy
7:53 PM 44.1 °F 36.5 °F 27.0 °F 51% 29.83 in 10.0 mi WNW 17.3 mph 26.5 mph N/A   Mostly Cloudy
8:53 PM 42.1 °F 34.9 °F 26.1 °F 53% 29.83 in 10.0 mi West 13.8 mph - N/A   Clear
9:53 PM 42.1 °F 33.3 °F 24.1 °F 49% 29.81 in 10.0 mi West 19.6 mph 26.5 mph N/A   Clear
10:53 PM 39.9 °F 31.1 °F 25.0 °F 55% 29.83 in 10.0 mi WSW 17.3 mph 26.5 mph N/A   Clear
11:53 PM 39.0 °F 30.6 °F 24.1 °F 55% 29.83 in 10.0 mi WSW 15.0 mph - N/A   Clear